Torna al catalogo

STARLINK-6266

AttivoComunicazioniVLEO
NORAD 56542·PAYLOAD·🇺🇸 United States

Lanciato May 14, 2023 da Cape Canaveral Space Force Station

Loading…

Prossimi Passaggi (prossime 24 ore)

TLE

AggiornatoSource: CelesTrak SupGP

Epoca: Sep 14, 2026, 13:28 UTC

1 56542C 23065AR  26257.56159722 -.00016443  00000+0 -59577-3 0  2579
2 56542  43.0002 240.2246 0001064 280.1116 274.4893 15.27574729    10

Traccia STARLINK-6266 in tempo reale con AllMySat

Download on the App Store